Location: Newark
(39.6867°N, 100.6772°W)
Time: 13:07:45
(UTC+00:00)

Explorer 11/Cluster Stage 4 - Pass Details

Date: 21 October 2019
Orbit: 467 x 1259 km, 28.8° (Epoch: 16 November)

Event Time Altitude Azimuth Distance (km) Brightness Sun altitude
Rises 18:51:38 0° 248° (WSW) 2,585 9.6 39.2°
Reaches altitude 10° 18:54:41 10° 220° (SW) 1,797 9.3 39.1°
Maximum altitude 18:56:45 13° 190° (S) 1,659 9.7 39.1°
Drops below altitude 10° 18:58:58 10° 160° (SSE) 1,970 9.6 39.0°
Sets 19:02:39 0° 135° (SE) 3,061 10.0 38.9°
